1321747229204,179.231
1321747289204,179.338
1321747349204,179.455
1321747409204,179.137
1321747469204,179.014
1321747529204,178.891
1321747589204,178.978
1321747649204,178.953
1321747709204,178.984
1321747769204,178.943
1321747829204,179.161
1321747889204,179.065
1321747949204,178.873
1321748009204,178.816
1321748069204,178.923
1321748129204,178.639
1321748189204,178.832
1321748249204,178.752
1321748309204,179.066
1321748369204,178.630
1321748429204,178.682
1321748489204,179.071
1321748549204,178.876
1321748609204,178.734
1321748669204,178.820
1321748729204,178.736
1321748789204,179.088
1321748849204,178.573
1321748909204,178.686
1321748969204,178.867
1321749029204,178.580
1321749089204,178.724
1321749149204,178.639
1321749209204,178.969
1321749269204,178.813
1321749329204,178.830
1321749389204,178.681
1321749449204,178.727
1321749509204,178.739
1321749569204,179.000
1321749629204,178.765
1321749689204,179.112
1321749749204,178.735
1321749809204,178.958
1321749869204,178.996
1321749929204,178.937
1321749989204,179.092
1321750049204,179.018
1321750109204,178.994
1321750169204,178.688
1321750229204,178.970
1321750289204,179.131
1321750349204,179.084
1321750409204,179.041
1321750469204,179.065
1321750529204,178.955
1321750589204,178.624
1321750649204,178.601
1321750709204,178.968
1321750769204,178.502
1321750829214,178.889
1321750889214,178.715
1321750949214,179.277
1321751009214,179.185
1321751069214,178.883
1321751129214,179.072
1321751189214,178.653
1321751249214,178.751
1321751309214,178.898
1321751369214,178.820
1321751429214,178.630
1321751489214,178.912
1321751549214,178.610
1321751609214,178.097
1321751669214,178.574
1321751729214,178.671
1321751789214,178.387
1321751849214,178.681
1321751909214,178.722
1321751969214,178.537
1321752029214,178.441
1321752089214,178.453
1321752149214,178.829
1321752209214,178.263
1321752269214,178.326
1321752329214,178.428
1321752389214,178.646
1321752449214,178.448
1321752509214,178.465
1321752569214,178.283
1321752629214,178.467
1321752689214,178.377
1321752749214,178.226
1321752809214,178.532
1321752869214,178.449
1321752929214,178.669
1321752989214,178.463
1321753049214,178.540
1321753109214,178.423
1321753169214,178.339
1321753229214,178.345
1321753289214,178.279
1321753349214,178.347
1321753409214,178.494
1321753469214,178.577
1321753529214,178.299
1321753589214,178.349
1321753649214,178.776
1321753709214,178.677
1321753769214,178.204
1321753829214,178.363
1321753889214,178.860
1321753949214,178.675
1321754009214,178.482
1321754069214,178.585
1321754129214,178.276
1321754189214,178.460
1321754249214,178.502
1321754309214,178.732
1321754369214,178.225
1321754429225,178.346
1321754489225,178.408
1321754549225,178.588
1321754609225,178.374
1321754669225,178.396
1321754729225,178.459
1321754789225,178.715
1321754849225,178.576
1321754909225,178.389
1321754969225,178.245
1321755029225,178.320
1321755089225,178.411
1321755149225,178.837
1321755209225,178.423
1321755269225,178.328
1321755329225,178.769
1321755389225,178.717
1321755449225,178.407
1321755509225,178.082
1321755569225,179.048
1321755629225,178.633
1321755689225,178.532
1321755749225,178.607
1321755809225,178.883
1321755869225,178.706
1321755929225,179.179
1321755989225,178.800
1321756049225,178.575
1321756109225,178.682
1321756169225,178.644
1321756229225,178.819
1321756289225,178.773
1321756349225,178.978
1321756409225,178.912
1321756469225,178.872
1321756529225,178.768
1321756589225,179.206
1321756649225,179.138
1321756709225,179.101
1321756769225,178.894
1321756829225,179.146
1321756889225,179.249
1321756949225,179.510
1321757009225,178.993
1321757069225,179.353
1321757129225,179.450
1321757189225,179.243
1321757249225,179.438
1321757309225,179.618
1321757369225,179.246
1321757429225,179.494
1321757489225,179.638
1321757549225,179.398
1321757609225,179.411
1321757669225,179.624
1321757729225,179.487
1321757789225,179.353
1321757849225,179.657
1321757909225,179.541
1321757969225,179.226
1321758029235,179.409
1321758089235,179.309
1321758149235,179.619
1321758209235,179.509
1321758269235,179.806
1321758329235,179.373
1321758389235,179.499
1321758449235,180.033
1321758509235,179.775
1321758569235,179.844
1321758629235,179.904
1321758689235,179.692
1321758749235,179.703
1321758809235,180.050
1321758869235,179.614
1321758929235,180.116
1321758989235,180.317
1321759049235,179.954
1321759109235,179.849
1321759169235,179.866
1321759229235,179.633
1321759289235,179.853
1321759349235,179.930
1321759409235,179.747
1321759469235,179.522
1321759529235,179.628
1321759589235,179.648
1321759649235,180.049
1321759709235,179.738
1321759769235,179.591
1321759829235,179.763
1321759889235,179.133
1321759949235,179.581
1321760009235,179.286
1321760069235,179.326
1321760129235,179.049
1321760189235,179.255
1321760249235,179.003
1321760309235,179.148
1321760369235,179.179
1321760429235,179.522
1321760489235,178.974
1321760549235,178.963
1321760609235,179.282
1321760669235,178.873
1321760729235,179.106
1321760789235,178.979
1321760849235,179.111
1321760909235,179.070
1321760969235,178.895
1321761029235,178.633
1321761089235,178.902
1321761149235,178.958
1321761209235,179.384
1321761269235,178.920
1321761329235,179.047
1321761389235,179.045
1321761449235,178.975
1321761509235,179.050
1321761569235,178.672
1321761629245,179.026
1321761689245,179.271
1321761749245,178.937
1321761809245,179.086
1321761869245,179.278
1321761929245,178.842
1321761989245,178.947
1321762049245,178.970
1321762109245,178.832
1321762169245,178.995
1321762229245,178.933
1321762289245,178.734
1321762349245,178.998
1321762409245,178.920
1321762469245,178.852
1321762529245,178.646
1321762589245,178.621
1321762649245,178.562
1321762709245,178.588
1321762769245,178.837
1321762829245,178.868
1321762889245,178.759
1321762949245,178.599
1321763009245,178.653
1321763069245,178.725
1321763129245,178.544
1321763189245,178.571
1321763249245,178.564
1321763309245,178.336
1321763369245,178.468
1321763429245,178.348
1321763489245,178.558
1321763549245,178.285
1321763609245,178.438
1321763669245,178.507
1321763729245,178.527
1321763789245,178.436
1321763849245,178.456
1321763909245,178.503
1321763969245,178.465
1321764029245,178.362
1321764089245,178.525
1321764149245,178.760
1321764209245,178.458
1321764269245,178.777
1321764329245,178.657
1321764389245,178.888
1321764449245,178.785
1321764509245,178.628
1321764569245,178.874
1321764629245,179.055
1321764689245,178.852
1321764749245,179.233
1321764809245,178.957
1321764869245,179.242
1321764929245,178.984
1321764989245,178.900
1321765049245,179.044
1321765109245,179.168
1321765169245,178.783
1321765229256,179.386
1321765289256,179.589
1321765349256,179.455
1321765409256,178.985
1321765469256,179.633
1321765529256,179.366
1321765589256,179.349
1321765649256,179.501
1321765709256,179.497
1321765769256,179.641
1321765829256,179.382
1321765889256,179.688
1321765949256,179.505
1321766009256,179.751
1321766069256,179.505
1321766129256,179.710
1321766189256,179.677
1321766249256,179.839
1321766309256,179.590
1321766369256,179.740
1321766429256,179.985
1321766489256,179.618
1321766549256,179.774
1321766609256,179.611
1321766669256,179.597
1321766729256,179.203
1321766789256,179.650
1321766849256,179.743
1321766909256,179.736
1321766969256,179.634
1321767029256,179.516
1321767089256,179.329
1321767149256,179.379
1321767209256,179.571
1321767269256,179.622
1321767329256,179.816
1321767389256,180.002
1321767449256,179.850
1321767509256,180.130
1321767569256,179.850
1321767629256,179.870
1321767689256,180.203
1321767749256,179.938
1321767809256,180.270
1321767869256,180.027
1321767929256,180.293
1321767989256,180.025
1321768049256,180.123
1321768109256,180.307
1321768169256,179.730
1321768229256,179.878
1321768289256,179.745
1321768349256,179.873
1321768409256,180.002
1321768469256,179.941
1321768529256,180.147
1321768589256,180.065
1321768649256,179.974
1321768709256,179.949
1321768769256,179.796
1321768829266,179.595
1321768889266,179.726
1321768949266,179.512
1321769009266,179.446
1321769069266,179.957
1321769129266,180.258
1321769189266,179.879
1321769249266,179.860
1321769309266,180.104
1321769369266,179.872
1321769429266,179.811
1321769489266,179.765
1321769549266,179.833
1321769609266,179.633
1321769669266,179.656
1321769729266,179.930
1321769789266,179.917
1321769849266,179.886
1321769909266,179.779
1321769969266,179.696
1321770029266,179.791
1321770089266,179.714
1321770149266,180.013
1321770209266,179.930
1321770269266,179.813
1321770329266,180.190
1321770389266,180.074
1321770449266,179.884
1321770509266,180.191
1321770569266,179.983
1321770629266,180.076
1321770689266,179.834
1321770749266,180.183
1321770809266,180.088
1321770869266,180.515
1321770929266,180.175
1321770989266,180.003
1321771049266,180.460
1321771109266,180.322
1321771169266,180.361
1321771229266,180.283
1321771289266,180.317
1321771349266,180.337
1321771409266,180.564
1321771469266,180.614
1321771529266,180.473
1321771589266,180.523
1321771649266,180.441
1321771709266,180.461
1321771769266,180.353
1321771829266,180.256
1321771889266,180.309
1321771949266,180.329
1321772009266,180.446
1321772069266,180.643
1321772129266,180.577
1321772189266,180.277
1321772249266,180.067
1321772309266,180.159
1321772369266,180.675
1321772429277,180.123
1321772489277,180.436
1321772549277,180.182
1321772609277,180.485
1321772669277,180.336
1321772729277,180.455
1321772789277,180.498
1321772849277,180.102
1321772909277,180.342
1321772969277,180.214
1321773029277,180.332
1321773089277,180.493
1321773149277,180.121
1321773209277,180.388
1321773269277,180.590
1321773329277,180.385
1321773389277,180.333
1321773449277,180.795
1321773509277,180.890
1321773569277,180.877
1321773629277,180.768
1321773689277,180.624
1321773749277,181.023
1321773809277,180.678
1321773869277,181.180
1321773929277,181.185
1321773989277,180.811
1321774049277,180.731
1321774109277,180.616
1321774169277,180.997
1321774229277,180.957
1321774289277,181.022
1321774349277,180.917
1321774409277,180.996
1321774469277,180.940
1321774529277,181.289
1321774589277,181.049
1321774649277,181.364
1321774709277,181.097
1321774769277,180.864
1321774829277,181.007
1321774889277,181.081
1321774949277,181.175
1321775009277,180.974
1321775069277,181.040
1321775129277,181.046
1321775189277,180.699
1321775249277,180.555
1321775309277,180.850
1321775369277,180.534
1321775429277,180.508
1321775489277,180.298
1321775549277,180.469
1321775609277,179.856
1321775669277,180.011
1321775729277,180.043
1321775789277,179.739
1321775849277,179.602
1321775909277,179.867
1321775969277,179.711
1321776029288,179.823
1321776089288,179.529
1321776149288,179.815
1321776209288,179.456
1321776269288,179.390
1321776329288,179.504
1321776389288,179.437
1321776449288,179.367
1321776509288,179.323
1321776569288,179.137
1321776629288,179.435
1321776689288,179.584
1321776749288,179.336
1321776809288,179.524
1321776869288,179.129
1321776929288,178.943
1321776989288,178.763
1321777049288,179.210
1321777109288,179.065
1321777169288,178.936
1321777229288,178.873
1321777289288,178.751
1321777349288,178.981
1321777409288,178.657
1321777469288,178.777
1321777529288,178.527
1321777589288,178.586
1321777649288,178.623
1321777709288,178.446
1321777769288,178.250
1321777829288,178.573
1321777889288,178.904
1321777949288,178.817
1321778009288,178.519
1321778069288,178.133
1321778129288,178.289
1321778189288,178.087
1321778249288,178.154
1321778309288,178.286
1321778369288,178.062
1321778429288,178.324
1321778489288,178.402
1321778549288,177.972
1321778609288,178.354
1321778669288,177.964
1321778729288,178.226
1321778789288,177.885
1321778849288,177.707
1321778909288,177.973
1321778969288,178.238
1321779029288,177.846
1321779089288,178.080
1321779149288,177.813
1321779209288,177.759
1321779269288,178.274
1321779329288,178.034
1321779389288,178.115
1321779449288,178.137
1321779509288,178.167
1321779569288,178.041
1321779629300,177.797
1321779689300,178.052
1321779749300,177.924
1321779809300,178.320
1321779869300,178.266
1321779929300,178.019
1321779989300,178.379
1321780049300,178.164
1321780109300,177.877
1321780169300,178.003
1321780229300,178.287
1321780289300,177.915
1321780349300,178.200
1321780409300,177.973
1321780469300,178.057
1321780529300,178.221
1321780589300,178.029
1321780649300,177.975
1321780709300,177.960
1321780769300,177.977
1321780829300,177.956
1321780889300,178.332
1321780949300,178.088
1321781009300,178.053
1321781069300,177.626
1321781129300,177.925
1321781189300,178.410
1321781249300,178.299
1321781309300,178.432
1321781369300,178.193
1321781429300,178.090
1321781489300,178.488
1321781549300,178.261
1321781609300,178.323
1321781669300,178.081
1321781729300,178.377
1321781789300,178.297
1321781849300,178.266
1321781909300,178.217
1321781969300,178.016
1321782029300,178.349
1321782089300,178.306
1321782149300,178.339
1321782209300,178.353
1321782269300,178.486
1321782329300,178.345
1321782389300,178.411
1321782449300,178.182
1321782509300,178.306
1321782569300,178.739
1321782629300,178.231
1321782689300,178.582
1321782749300,178.489
1321782809300,178.388
1321782869300,178.503
1321782929300,178.725
1321782989300,178.736
1321783049300,178.858
1321783109300,178.606
1321783169300,178.939
1321783229311,178.418
1321783289311,178.993
1321783349311,178.847
1321783409311,178.660
1321783469311,178.946
1321783529311,178.701
1321783589311,179.075
1321783649311,178.694
1321783709311,178.498
1321783769311,178.860
1321783829311,178.433
1321783889311,178.768
1321783949311,178.670
1321784009311,178.392
1321784069311,178.370
1321784129311,178.350
1321784189311,178.219
1321784249311,178.301
1321784309311,178.440
1321784369311,178.437
1321784429311,178.123
1321784489311,178.264
1321784549311,178.190
1321784609311,178.187
1321784669311,178.233
1321784729311,178.150
1321784789311,178.231
1321784849311,177.997
1321784909311,178.223
1321784969311,178.021
1321785029311,177.945
1321785089311,177.831
1321785149311,177.737
1321785209311,178.087
1321785269311,177.932
1321785329311,177.649
1321785389311,178.038
1321785449311,177.889
1321785509311,177.991
1321785569311,178.000
1321785629311,178.243
1321785689311,178.290
1321785749311,178.407
1321785809311,178.374
1321785869311,178.509
1321785929311,178.036
1321785989311,178.256
1321786049311,177.625
1321786109311,178.169
1321786169311,178.450
1321786229311,178.449
1321786289311,178.175
1321786349311,178.605
1321786409311,178.230
1321786469311,178.684
1321786529311,178.509
1321786589311,178.514
1321786649311,178.450
1321786709311,178.466
1321786769311,178.530
1321786829323,178.933
1321786889323,178.630
1321786949323,178.634
1321787009323,178.170
1321787069323,178.615
1321787129323,178.257
1321787189323,178.457
1321787249323,178.819
1321787309323,178.231
1321787369323,178.269
1321787429323,178.575
1321787489323,178.541
1321787549323,178.270
1321787609323,178.417
1321787669323,178.269
1321787729323,178.404
1321787789323,178.366
1321787849323,178.165
1321787909323,178.386
1321787969323,178.481
1321788029323,178.436
1321788089323,178.475
1321788149323,178.541
1321788209323,178.352
1321788269323,178.139
1321788329323,178.123
1321788389323,178.009
1321788449323,177.975
1321788509323,178.297
1321788569323,177.969
1321788629323,178.577
1321788689323,178.218
1321788749323,178.340
1321788809323,178.348
1321788869323,178.506
1321788929323,178.472
1321788989323,178.648
1321789049323,178.885
1321789109323,178.286
1321789169323,178.314
1321789229323,178.731
1321789289323,178.608
1321789349323,178.668
1321789409323,178.431
1321789469323,178.555
1321789529323,178.807
1321789589323,179.017
1321789649323,179.020
1321789709323,179.290
1321789769323,179.828
1321789829323,179.383
1321789889323,179.266
1321789949323,179.429
1321790009323,179.375
1321790069323,179.550
1321790129323,179.909
1321790189323,179.275
1321790249323,179.218
1321790309323,179.269
1321790369323,179.223
1321790429335,179.568
1321790489335,179.340
1321790549335,179.253
1321790609335,179.253
1321790669335,179.040
1321790729335,179.667
1321790789335,179.095
1321790849335,178.958
1321790909335,179.217
1321790969335,179.226
1321791029335,179.539
1321791089335,178.991
1321791149335,179.271
1321791209335,179.388
1321791269335,179.266
1321791329335,179.199
1321791389335,179.561
1321791449335,179.321
1321791509335,179.007
1321791569335,179.093
1321791629335,179.074
1321791689335,179.325
1321791749335,179.496
1321791809335,179.603
1321791869335,179.966
1321791929335,179.776
1321791989335,179.917
1321792049335,180.151
1321792109335,180.495
1321792169335,180.213
1321792229335,180.166
1321792289335,179.898
1321792349335,179.751
1321792409335,180.008
1321792469335,180.069
1321792529335,179.895
1321792589335,179.884
1321792649335,179.785
1321792709335,180.144
1321792769335,179.935
1321792829335,179.550
1321792889335,179.586
1321792949335,179.836
1321793009335,179.741
1321793069335,180.157
1321793129335,179.737
1321793189335,179.526
1321793249335,179.486
1321793309335,179.474
1321793369335,179.141
1321793429335,179.125
1321793489335,179.082
1321793549335,178.592
1321793609335,179.203
1321793669335,179.363
1321793729335,179.374
1321793789335,179.569
1321793849335,179.163
1321793909335,179.117
1321793969335,179.014
1321794029347,178.834
1321794089347,179.187
1321794149347,179.149
1321794209347,179.040
1321794269347,179.419
1321794329347,179.078
1321794389347,178.933
1321794449347,179.059
1321794509347,179.281
1321794569347,178.981
1321794629347,179.255
1321794689347,179.130
1321794749347,178.872
1321794809347,179.075
1321794869347,179.191
1321794929347,179.096
1321794989347,179.038
1321795049347,179.072
1321795109347,178.994
1321795169347,179.177
1321795229347,178.873
1321795289347,178.988
1321795349347,178.674
1321795409347,178.807
1321796549347,179.042
1321796609347,178.988
1321796669347,178.742
1321796729347,178.674
1321796789347,178.958
1321796849347,178.262
1321796909347,178.420
1321796969347,178.538
1321797029347,178.197
1321797089347,178.475
1321797149347,178.652
1321797209347,178.001
1321797269347,178.639
1321797329347,178.219
1321797389347,178.000
1321797449347,178.101
1321797509347,178.042
1321797569347,177.655
1321797629359,178.106
1321797689359,177.394
1321797749360,177.900
1321797809360,177.703
1321797869360,177.367
1321797929360,177.954
1321797989360,178.009
1321798049359,177.793
1321798109359,178.193
1321798169359,177.579
1321798229359,177.876
1321798289359,177.735
1321798349359,177.959
1321798409359,177.888
1321798469359,178.097
1321798529359,177.677
1321798589359,177.962
1321798649359,178.185
1321798709359,178.547
1321798769359,177.885
1321798829359,177.765
1321798889359,177.869
1321798949359,177.764
1321799009359,177.943
1321799069360,178.097
1321799129360,177.900
1321799189360,177.759
1321799249360,177.644
1321799309360,177.538
1321799369360,177.751
1321799429359,177.597
1321799489359,177.636
1321799549359,177.520
1321799609359,177.469
1321799669359,177.468
1321799729359,177.461
1321799789359,177.427
1321799849359,177.102
1321799909359,177.216
1321799969359,177.453
1321800029359,177.025
1321800089359,177.081
1321800149359,176.952
1321800209359,177.075
1321800269359,177.155
1321800329359,176.887
1321800389359,177.087
1321800449360,177.282
1321800509360,176.697
1321800569360,176.903
1321800629360,176.901
1321800689360,176.589
1321800749359,176.927
1321800809359,177.004
1321800869359,176.824
1321800929359,176.874
1321800989359,176.414
1321801049359,176.786
1321801109359,176.671
1321801169359,176.375
1321801229372,176.389
1321801289372,176.565
1321801349372,176.803
1321801409372,176.428
1321801469372,176.230
1321801529372,176.657
1321801589372,176.308
1321801649372,176.310
1321801709372,176.611
1321801769372,176.399
1321801829372,176.347
1321801889372,175.961
1321801949372,176.308
1321802009372,176.079
1321802069372,176.149
1321802129372,176.449
1321802189372,176.373
1321802249372,176.356
1321802309372,176.367
1321802369372,176.573
1321802429372,176.449
1321802489372,176.760
1321802549372,176.376
1321802609372,176.356
1321802669372,176.124
1321802729372,176.411
1321802789372,176.431
1321802849372,176.464
1321802909372,176.354
1321802969372,176.337
1321803029372,176.270
1321803089372,176.235
1321803149372,176.181
1321803209372,176.019
1321803269372,176.090
1321803329372,175.953
1321803389372,176.172
1321803449372,175.815
1321803509372,176.184
1321803569372,175.806
1321803629372,176.064
1321803689372,175.822
1321803749372,175.967
1321803809372,175.882
1321803869372,176.129
1321803929372,175.772
1321803989372,175.955
1321804049372,175.830
1321804109372,176.124
1321804169372,175.859
1321804229372,175.843
1321804289372,176.087
1321804349372,175.583
1321804409372,176.123
1321804469372,175.770
1321804529372,175.679
1321804589372,175.752
1321804649372,175.657
1321804709372,175.835
1321804769372,175.442
1321804829384,175.417
1321804889384,175.521
1321804949384,175.420
1321805009384,175.126
1321805069384,175.415
1321805129384,174.822
1321805189384,175.258
1321805249384,175.322
1321805309384,175.130
1321805369384,174.777
1321805429384,174.958
1321805489384,174.812
1321805549384,175.007
1321805609384,175.041
1321805669384,174.763
1321805729384,174.687
1321805789384,174.377
1321805849384,174.516
1321805909384,174.720
1321805969384,174.440
1321806029384,174.630
1321806089384,174.510
1321806149384,174.564
1321806209384,174.591
1321806269384,174.146
1321806329384,174.284
1321806389384,174.116
1321806449384,174.281
1321806509384,174.499
1321806569384,174.285
1321806629384,174.484
1321806689384,174.521
1321806749384,173.975
1321806809384,174.352
1321806869384,174.149
1321806929384,174.537
1321806989384,174.411
1321807049384,173.990
1321807109384,174.248
1321807169384,174.295
1321807229384,174.367
1321807289384,174.529
1321807349384,174.535
1321807409384,174.823
1321807469384,174.973
1321807529384,175.110
1321807589384,174.923
1321807649384,174.954
1321807709384,175.178
1321807769384,175.075
1321807829384,175.239
1321807889384,175.194
1321807949384,175.457
1321808009384,175.222
1321808069384,175.187
1321808129384,174.902
1321808189384,175.177
1321808249384,174.693
1321808309384,174.661
1321808369384,175.036
1321808429396,175.010
1321808489396,175.135
1321808549396,174.791
1321808609396,175.222
1321808669396,175.142
1321808729396,175.038
1321808789396,175.075
1321808849396,174.854
1321808909396,175.091
1321808969396,175.092
1321809029396,174.860
1321809089396,174.916
1321809149396,174.839
1321809209396,174.880
1321809269396,174.856
1321809329396,174.924
1321809389396,174.733
1321809449396,174.599
1321809509396,174.628
1321809569396,174.637
1321809629396,174.770
1321809689396,174.660
1321809749396,174.536
1321809809396,174.334
1321809869396,174.347
1321809929396,174.304
1321809989396,174.527
1321810049396,174.661
1321810109396,174.680
1321810169396,174.543
1321810229396,175.236
1321810289396,175.394
1321810349396,175.416
1321810409396,175.131
1321810469396,175.007
1321810529396,175.131
1321810589396,174.831
1321810649396,175.496
1321810709396,175.926
1321810769396,175.894
1321810829396,175.960
1321810889396,176.039
1321810949396,175.909
1321811009396,175.939
1321811069396,175.606
1321811129396,175.158
1321811189396,174.896
1321811249396,174.952
1321811309396,174.959
1321811369396,174.641
1321811429396,174.601
1321811489396,174.316
1321811549396,174.067
1321811609396,174.328
1321811669396,174.138
1321811729396,174.451
1321811789396,174.381
1321811849396,174.364
1321811909396,174.492
1321811969396,174.331
1321812029408,174.354
1321812089408,174.476
1321812149408,174.549
1321812209408,174.706
1321812269408,174.573
1321812329408,174.422
1321812389408,174.372
1321812449408,174.548
1321812509408,174.290
1321812569408,174.379
1321812629408,174.450
1321812689408,174.421
1321812749408,174.084
1321812809408,174.518
1321812869408,174.679
1321812929408,174.411
1321812989408,174.406
1321813049408,174.071
1321813109408,174.185
1321813169408,174.329
1321813229408,174.094
1321813289408,174.304
1321813349408,174.174
1321813409408,174.089
1321813469408,173.884
1321813529408,173.832
1321813589408,173.938
1321813649408,174.148